User: anonymous   Login
Location: Unspecified
(0.0000°N, 0.0000°E)
Time: 16:28:48
(UTC+00:00)
Language:

COSMOS 2468 - Orbit

View from above orbital plane
View from above orbital plane
View from above satellite
View from above satellite

Ground track
Ground track

The orbit data is extracted from the following two-line orbital elements,

1 37154U 10043C   18264.74384496 +.00000038 +00000-0 +20405-3 0  9999
2 37154 082.4631 031.1364 0013999 354.0317 006.0596 12.43643785364729
Epoch (UTC): 21 September 2018 17:51:08
Eccentricity: 0.0013999
inclination: 82.4631°
perigee height: 1480 km
apogee height: 1502 km
right ascension of ascending node: 31.1364°
argument of perigee: 354.0317°
revolutions per day: 12.43643785
mean anomaly at epoch: 6.0596°
orbit number at epoch: 36472

The dashed part of the orbit path shows where the satellite is in the earth's shadow,  

DLR